Regional Weather Roundup
Issued by NWS Cleveland, OH

Home | Current Version | Previous Version | Text Only | Print | Product List | Glossary Off
Versions: 1 2 3 4 5 6 7 8 9 10 11 12 13 14 15 16 17 18 19 20 21 22 23 24 25 26 27 28 29 30 31 32 33 34 35 36 37 38 39 40 41 42 43 44 45 46 47 48 49 50

000
ASUS41 KCLE 260710
RWRCLE
OHIO REGIONAL WEATHER ROUNDUP
NATIONAL WEATHER SERVICE WILMINGTON, OH
300 AM EDT FRI MAY 26 2017

NOTE: "FAIR" INDICATES FEW OR NO CLOUDS BELOW 12,000 FEET WITH NO
SIGNIFICANT WEATHER AND/OR OBSTRUCTIONS TO VISIBILITY.

OHZ001>008-015>018-024>027-034-035-043-044-260800-
   NORTHWEST OHIO

CITY           SKY/WX    TMP DP  RH WIND       PRES   REMARKS
DEFIANCE       FAIR      54  51  90 VRB7      29.73R
FINDLAY        CLOUDY    58  53  84 W14       29.71R
TOLEDO EXPRESS FAIR      57  56  96 W8        29.69R
TOLEDO EXEC    CLOUDY    60  57  89 W8        29.69R
LIMA           FAIR      56  54  93 W14       29.74R
$$

OHZ009>014-019>023-028>033-038-089-260800-
   NORTHEAST OHIO

CITY           SKY/WX    TMP DP  RH WIND       PRES   REMARKS
CLE-HOPKINS    CLOUDY    60  57  89 W10       29.67R
CLE-LAKEFRONT  CLOUDY    58  55  90 NW15      29.64R
CUY CO. ARPT   NOT AVBL
LORAIN-ELYRIA  LGT RAIN  58  53  84 NW7       29.67R
ASHTABULA      LGT RAIN  55  55 100 W7        29.62R FOG
AKRON-CANTON   CLOUDY    59  55  87 W8        29.66R FOG
WOOSTER        CLOUDY    58  56  93 W10       29.67R
MANSFIELD      CLOUDY    58  57  97 W13G18    29.69R
YOUNGSTOWN     DRIZZLE   57  55  93 W8        29.62R FOG
$$

OHZ042-051>053-060>062-070>072-077>081-260800-
  SOUTHWEST OHIO

CITY           SKY/WX    TMP DP  RH WIND       PRES   REMARKS
CINC-COVINGTON FAIR      55  52  89 SW5       29.82S
CINC-LUNKEN    FAIR      58  54  86 SW6       29.82S
HAMILTON       FAIR      56  56 100 SW3       29.82R
DAYTON         FAIR      57  55  93 W14       29.79R
WRIGHT-PAT AFB PTCLDY    58  58 100 SW13      29.78R
DAYTON GENERAL FAIR      58  55  90 SW8       29.79R
WILMINGTON     FAIR      58  57  97 W15       29.79R
$$

OHZ036-037-039>041-045>050-054>059-063>069-073>076-082>088-260800-
  CENTRAL AND SOUTHEAST OHIO

CITY           SKY/WX    TMP DP  RH WIND       PRES   REMARKS
COLUMBUS       CLOUDY    60  57  89 W16G23    29.73R
OSU AIRPORT    CLOUDY    59  56  89 W14       29.74R
BOLTON FIELD   CLOUDY    59  55  88 W9        29.76S
RICKENBACK AFB CLOUDY    59  56  89 W12       29.75R
NEWARK         CLOUDY    60  57  89 W9        29.72R
MARION         CLOUDY    59  55  87 W10       29.73R
LANCASTER      CLOUDY    62  55  77 W9        29.75R
ZANESVILLE     CLOUDY    60  56  86 W9        29.71R
NEW PHILLY     CLOUDY    60  58  92 W7        29.68R
$$



USA.gov is the U.S. government's official web portal to all federal, state and local government web resources and services.